Theta_e
294 293 293 291 290 289 289 288 289 289 288 290 289 290 288 288 285 282 281 283 283 285 286 284 285 286 286 286 287 285 283 285 285 284 285 284 284 285 286 287 288 289 289 289 290 290 290 290 290 290 291 291 292 292 292 291 291 291 291 291 292 293 292 294 293 293 293 292 293 294 294 294 295 295
292 292 291 289 288 288 288 288 287 288 288 288 288 286 286 287 285 285 282 282 284 284 286 285 284 285 285 286 286 285 284 286 283 283 283 283 283 285 286 287 287 288 289 289 289 289 289 289 290 290 290 291 291 292 291 291 291 290 291 292 292 292 292 293 292 292 291 292 292 293 294 294 294 294
291 290 289 289 287 288 288 287 287 287 287 287 287 285 286 285 284 284 284 280 283 284 284 284 286 284 285 285 285 285 285 285 283 282 282 283 284 285 284 285 286 287 288 288 288 288 289 289 289 289 290 290 291 291 291 290 290 289 290 290 291 292 292 291 291 291 290 291 291 292 293 293 294 294
290 289 287 287 287 287 287 286 286 286 286 286 286 285 285 285 284 284 285 281 282 286 284 284 285 285 284 285 283 284 284 285 284 282 282 282 284 283 282 284 286 286 287 288 288 288 288 288 289 289 289 290 290 290 290 289 289 289 289 290 291 290 291 290 290 290 289 290 290 291 292 292 293 293
288 287 286 286 286 286 285 285 285 285 285 285 285 285 285 284 284 285 282 280 280 283 283 285 284 285 284 283 284 283 283 283 283 283 282 282 282 282 282 282 284 285 286 287 287 287 288 288 288 289 289 289 289 289 289 288 288 288 288 289 290 289 289 289 289 289 288 289 289 291 291 292 292 292
287 286 285 284 284 285 284 284 283 283 283 283 283 282 283 283 284 284 284 280 280 279 281 282 284 283 284 281 284 282 282 282 283 282 282 283 282 282 281 281 282 284 285 286 286 287 287 288 288 288 288 289 288 289 289 288 288 288 288 287 288 288 289 289 288 287 288 289 290 290 291 291 291 291
286 285 284 283 284 285 283 282 282 282 282 282 282 281 281 280 282 283 284 281 279 279 280 281 280 281 282 281 281 283 283 283 282 281 281 281 282 282 282 281 281 284 285 286 287 287 287 288 288 288 288 288 288 288 288 287 287 287 287 287 287 287 287 287 287 287 287 288 289 289 290 290 290 290
284 284 283 283 283 283 282 281 281 281 281 281 281 281 281 280 281 281 281 281 280 280 279 280 279 281 280 280 282 283 282 281 280 281 281 282 281 281 282 281 281 282 285 286 286 287 287 287 287 288 288 288 288 288 287 287 286 286 286 286 286 286 285 285 285 285 286 287 289 289 289 289 289 289
284 284 283 282 282 282 281 281 280 280 280 280 280 280 281 280 281 282 281 281 280 279 279 279 281 281 280 281 281 281 280 280 280 280 280 280 281 281 281 282 282 284 285 285 286 286 287 287 287 287 287 288 287 287 287 286 286 286 285 285 285 285 284 284 284 285 286 286 286 287 288 289 289 289
284 283 283 282 282 282 281 281 280 280 280 280 280 280 281 281 281 281 280 280 279 279 279 279 279 281 280 279 280 280 280 279 279 279 280 280 281 280 280 280 281 281 281 281 281 283 284 285 286 286 287 287 287 286 286 286 286 285 284 284 284 283 283 283 284 285 285 285 286 286 287 287 288 288
283 284 283 282 282 282 282 281 280 280 280 281 280 281 281 281 281 281 280 280 280 279 279 279 280 280 280 280 278 280 280 279 279 278 278 278 280 280 280 279 280 281 281 283 284 283 282 283 282 284 285 286 286 286 285 285 285 284 283 283 283 283 283 283 284 285 285 285 285 285 285 286 287 287
283 283 283 282 282 282 282 281 281 282 281 281 280 281 281 281 281 280 281 280 280 280 279 279 279 280 280 279 280 280 279 278 278 279 278 277 278 279 281 281 279 280 281 280 280 283 284 284 284 285 285 285 285 285 285 284 283 282 282 282 282 282 282 283 284 284 284 284 284 284 284 284 285 286
282 281 281 281 281 282 283 284 283 283 283 281 281 282 281 281 281 281 281 281 280 280 280 279 280 280 279 279 279 279 278 278 278 280 279 278 279 279 279 280 281 281 280 280 280 280 280 279 279 279 279 279 281 281 282 282 282 282 282 282 282 282 282 283 284 284 284 284 284 284 284 284 284 284
280 280 280 281 282 283 282 283 284 284 284 284 283 283 282 282 281 281 280 281 281 280 280 280 280 279 279 280 280 280 280 281 281 280 279 278 279 279 279 279 280 281 280 279 278 279 280 279 278 278 277 279 280 278 278 277 278 279 281 281 282 282 282 282 283 283 283 283 283 283 283 283 283 283
279 279 279 280 282 282 282 281 283 283 283 283 283 284 284 284 283 281 280 280 280 280 280 280 280 280 279 280 281 281 281 281 280 279 279 279 279 278 277 276 279 282 280 278 277 278 279 278 277 277 278 278 278 278 278 280 281 281 281 281 281 281 282 282 282 282 282 282 283 283 283 282 283 283
279 279 278 279 280 279 279 280 281 282 283 284 284 284 284 284 285 285 282 281 280 280 279 279 279 280 279 280 281 281 281 280 280 280 279 279 278 277 277 277 276 279 280 276 276 276 278 278 278 277 277 278 278 278 280 281 281 281 281 281 281 281 281 282 282 282 282 282 282 282 282 282 282 282
279 279 278 278 279 280 282 281 281 281 281 283 283 284 284 284 285 285 285 285 282 281 279 279 279 279 279 279 280 281 280 281 279 279 279 279 279 278 277 277 278 279 279 276 275 275 277 278 277 276 277 278 278 277 280 281 281 281 281 281 281 281 281 281 281 281 281 281 281 281 281 282 282 282
279 279 279 278 278 279 280 281 281 281 281 281 281 282 282 282 283 284 285 285 285 284 281 279 278 280 280 279 280 281 281 279 279 279 278 279 278 278 278 279 279 280 281 277 275 274 276 277 276 275 276 278 277 277 279 281 281 281 281 281 281 281 280 281 280 280 280 281 281 281 281 281 281 281
279 279 279 279 279 279 279 280 280 280 280 280 280 281 281 282 282 283 283 283 283 282 282 281 280 280 280 280 280 280 281 281 281 280 278 278 278 279 280 279 280 279 280 279 277 272 275 277 275 275 276 277 277 276 278 280 280 280 280 280 280 280 280 280 280 280 280 281 280 281 281 281 281 281
279 279 280 280 281 281 281 282 283 282 281 280 280 279 280 280 281 281 283 284 285 284 283 282 282 282 282 283 282 283 283 282 282 282 281 280 279 277 276 275 276 276 279 279 277 274 273 276 274 274 276 276 275 275 275 278 279 280 280 280 280 279 280 280 279 279 280 280 280 280 280 280 280 280
279 279 280 281 281 281 280 282 284 284 283 281 280 279 279 279 279 279 281 283 284 284 285 285 286 286 286 287 287 287 287 285 284 282 280 278 278 275 273 274 275 274 277 278 278 276 272 274 274 273 274 274 273 273 274 274 278 278 278 278 278 279 279 279 279 279 279 279 279 279 279 280 280 279
279 280 281 281 280 280 280 283 284 285 284 281 280 280 279 278 278 279 279 280 280 283 283 284 284 284 284 284 284 284 284 284 283 279 276 278 278 276 275 273 274 275 276 277 279 273 272 273 273 272 272 273 273 273 273 274 274 276 276 277 277 278 278 278 278 278 278 279 279 279 279 279 278 275
280 280 281 282 281 281 281 283 284 285 284 281 280 280 279 278 278 279 280 279 279 279 278 279 279 280 281 281 280 280 282 283 282 280 279 279 277 275 275 275 274 272 274 277 278 272 272 272 273 273 270 269 272 273 273 272 271 271 271 272 272 275 275 276 277 277 277 277 278 278 278 278 277 273
281 281 281 282 283 284 284 284 285 285 285 282 280 280 279 278 277 280 279 280 280 279 279 279 280 280 280 280 279 279 279 279 280 280 279 279 278 276 275 275 274 273 273 276 276 272 273 274 271 274 271 268 266 270 271 270 272 271 271 270 270 273 274 274 274 275 275 276 277 277 277 277 276 273
283 283 283 283 284 285 286 286 286 285 285 284 282 281 279 279 281 282 281 281 282 281 281 280 280 280 280 279 279 279 278 278 278 278 279 279 278 277 275 274 273 273 274 276 278 274 270 272 270 271 270 270 269 268 270 270 271 270 270 270 269 270 270 270 271 270 273 274 275 276 275 275 276 275
284 284 284 284 284 285 286 285 285 285 284 284 283 283 284 284 284 283 283 283 282 282 281 281 280 280 279 279 278 277 277 277 277 278 277 278 278 277 277 275 273 272 272 275 277 274 271 270 271 269 269 268 268 269 267 268 269 269 269 269 269 269 270 269 269 269 269 269 270 271 272 275 276 275
283 284 283 283 284 284 283 283 283 283 283 283 282 283 283 283 283 282 281 281 280 280 280 280 279 279 279 278 277 277 277 277 278 277 277 277 277 277 277 277 276 274 274 274 274 273 272 269 271 269 267 268 267 267 267 265 265 268 267 268 268 269 269 269 268 268 269 269 269 273 273 273 273 274
283 282 282 282 282 282 282 282 282 282 281 281 282 282 282 281 281 280 279 279 279 279 278 277 277 277 278 278 278 277 276 275 275 275 275 275 276 275 274 274 273 273 273 272 272 272 271 270 269 270 269 267 265 264 263 266 266 265 264 267 267 268 268 268 268 268 268 268 268 268 268 268 269 269
282 282 282 282 281 281 281 280 280 280 280 280 280 279 279 278 277 276 276 276 276 276 275 276 276 276 277 276 276 275 275 275 275 275 274 274 273 270 269 269 269 269 270 270 270 270 270 269 268 268 268 267 266 265 265 263 264 264 265 264 263 265 267 267 267 267 267 267 267 267 267 267 267 268
281 281 280 280 279 279 279 278 276 277 276 278 277 277 277 274 275 275 276 275 275 274 274 274 274 275 275 275 275 275 274 273 272 272 271 270 270 269 269 269 269 267 267 268 268 269 269 269 269 268 267 267 266 264 264 263 262 264 264 263 264 265 266 267 267 267 267 266 267 267 267 267 267 268
277 278 278 278 278 277 278 277 277 276 277 275 275 276 276 275 275 275 275 274 274 273 273 273 273 273 274 274 273 272 272 272 272 273 271 270 269 269 269 268 267 267 267 266 267 268 268 268 269 268 266 265 266 265 265 265 263 263 263 264 263 260 263 265 266 266 266 266 266 266 267 267 267 268
276 275 277 277 275 275 274 275 274 275 274 275 275 275 274 274 275 275 276 275 274 273 273 273 272 272 271 270 270 271 271 270 271 272 270 270 269 269 268 266 265 265 265 267 266 266 268 267 267 268 268 266 264 264 265 264 263 262 262 263 263 264 265 264 264 265 266 266 265 264 265 265 265 266
274 275 275 275 275 275 275 275 275 275 275 275 274 272 272 272 273 273 272 271 271 271 271 270 270 269 269 269 269 269 268 269 269 270 269 269 268 267 267 265 264 264 264 264 266 267 266 265 266 267 267 267 267 265 264 261 262 262 261 262 263 263 263 264 264 264 265 264 263 263 263 265 265 266
275 275 275 275 275 275 275 274 274 274 273 273 272 272 273 271 270 271 271 270 269 268 267 267 267 267 267 266 267 267 266 267 267 268 268 266 266 265 265 264 263 264 264 264 265 266 267 265 264 264 265 264 264 264 263 262 261 261 262 262 262 261 263 263 264 264 265 264 263 261 262 263 265 266
276 275 275 275 275 275 274 273 273 272 271 271 270 270 269 269 269 269 268 266 265 264 264 265 265 265 264 264 264 264 264 264 264 265 265 265 265 264 264 263 263 263 263 263 263 265 265 264 264 263 262 262 261 262 266 264 260 261 260 261 262 262 262 263 263 264 264 263 263 261 262 263 263 265
276 276 275 274 274 273 272 272 271 271 270 269 268 267 267 267 267 265 263 263 261 262 263 263 263 263 263 263 263 263 263 263 263 263 263 263 263 263 263 263 263 263 263 263 263 264 264 263 263 261 259 259 259 258 259 268 267 262 261 261 262 261 261 262 262 262 262 261 262 262 261 261 262 264
275 275 274 273 273 272 271 271 270 269 268 267 265 265 264 264 264 263 261 261 261 262 262 262 262 262 262 263 262 262 262 262 261 262 261 262 262 262 261 261 262 262 262 262 263 263 263 262 262 261 259 258 257 256 258 261 265 268 263 261 260 261 261 260 260 259 261 262 262 262 262 262 262 264
273 273 271 271 270 269 269 268 267 266 265 264 263 263 263 262 262 261 261 261 261 261 261 261 261 261 261 261 261 260 261 261 261 260 261 261 261 260 260 260 260 260 261 262 262 262 262 261 260 260 259 257 256 256 256 259 258 262 266 263 260 260 260 259 259 259 260 262 262 263 263 262 262 264
270 270 269 268 267 265 265 265 265 264 261 262 262 261 261 261 261 261 261 261 261 260 260 259 259 260 259 258 260 259 258 258 258 259 260 260 261 260 259 259 259 259 259 259 260 261 261 260 260 260 259 258 257 257 257 256 256 259 262 266 263 260 260 260 260 261 261 261 262 263 264 265 266 269
266 266 266 265 264 263 262 262 261 261 260 260 260 260 259 260 260 259 259 260 260 259 259 259 259 259 258 258 258 257 257 256 258 258 259 260 260 260 259 259 259 259 259 259 258 258 259 259 260 259 258 258 259 259 258 258 258 259 259 261 266 265 263 263 262 262 261 262 262 261 261 262 261 263
264 263 263 262 262 261 261 260 260 260 259 259 257 260 259 258 258 258 258 259 259 257 257 257 257 256 256 256 256 256 256 257 257 258 259 259 259 260 260 260 259 259 259 257 257 258 258 259 259 263 260 259 259 259 257 255 255 257 259 261 265 267 267 267 264 263 262 263 262 261 260 260 260 262
262 262 261 260 260 260 260 258 259 259 258 258 258 258 257 258 257 260 259 260 258 256 256 256 256 257 257 256 256 257 256 256 256 257 258 257 257 258 258 258 258 258 257 256 257 257 258 258 259 258 256 257 256 255 254 255 255 256 258 259 260 264 266 266 267 267 265 264 262 261 261 261 262 261
260 260 260 259 259 259 258 258 258 258 258 258 257 257 257 257 257 257 257 256 256 256 256 256 256 256 256 256 256 257 256 255 256 256 256 256 257 256 256 257 257 257 256 257 257 257 258 257 256 256 256 255 256 256 254 255 256 256 257 258 259 259 260 264 266 267 268 268 268 266 264 263 261 259
259 259 259 259 258 258 257 257 257 258 257 257 257 256 257 256 256 256 256 256 256 255 256 256 256 256 255 255 256 255 256 255 255 255 256 256 256 256 256 257 257 256 257 257 257 256 256 256 255 255 254 255 255 255 255 255 255 256 257 257 258 257 257 259 260 263 264 265 267 268 269 269 269 269
259 259 258 258 258 257 257 257 256 256 256 256 256 256 256 256 256 256 255 255 255 255 254 254 254 255 255 255 255 254 255 259 257 256 256 256 256 256 256 256 257 256 256 256 255 255 254 254 255 254 255 255 255 255 256 256 256 256 256 256 256 256 257 258 258 258 258 259 264 268 269 270 270 270
Wind_Speed
6 4 4 5 5 4 5 5 4 4 3 3 2 1 1 0 0 1 3 6 4 4 5 3 5 5 4 4 3 3 3 5 6 3 2 3 3 7 10 11 11 12 13 13 13 13 13 13 13 15 16 15 15 15 15 16 16 17 18 19 20 21 21 21 21 21 21 22 22 23 24 25 26 27
6 6 5 5 5 4 5 5 4 3 4 3 3 3 3 2 1 1 1 2 3 2 3 2 3 4 5 3 3 3 4 6 6 2 3 4 5 9 11 12 14 14 14 13 13 13 14 14 14 15 16 16 15 16 16 16 17 18 19 20 20 20 20 20 20 20 20 21 22 24 25 26 27 27
7 7 7 6 6 5 6 6 5 4 4 3 3 3 3 3 2 1 2 1 2 3 2 2 3 5 4 3 3 2 2 5 5 3 4 5 8 11 9 13 15 15 14 14 14 14 14 14 15 16 17 16 16 16 16 16 17 18 19 20 20 19 20 20 20 20 20 21 22 23 25 26 27 28
6 8 7 7 6 6 6 5 4 4 4 4 3 3 3 4 2 2 0 2 1 1 2 3 3 4 4 4 3 3 3 5 9 4 4 6 8 6 7 12 14 14 14 14 14 14 14 14 15 17 17 17 17 16 16 16 17 19 19 19 19 19 19 19 19 19 20 21 22 23 25 26 26 27
7 8 8 7 6 6 6 5 5 5 4 4 3 3 3 2 2 1 0 1 2 0 2 2 2 3 3 2 4 4 4 3 5 6 5 6 6 6 6 6 10 13 14 15 14 14 14 14 15 17 17 17 17 17 17 16 18 19 19 19 19 19 19 19 19 19 20 21 22 23 25 26 26 27
6 8 9 8 7 6 7 6 6 5 5 4 4 2 2 2 2 0 0 2 1 2 2 1 2 3 3 2 3 5 4 4 3 5 6 5 6 6 6 6 5 12 13 14 14 15 15 15 16 17 18 18 17 17 17 17 18 19 19 19 19 19 18 19 19 19 20 21 22 24 25 25 26 27
9 9 9 9 8 6 8 6 6 5 5 4 4 4 2 1 2 1 0 0 2 3 3 1 2 3 4 5 3 3 4 3 3 5 6 6 5 5 6 6 5 10 13 15 15 16 16 16 16 17 18 18 18 17 17 17 19 19 19 19 19 18 18 18 19 19 20 21 23 24 25 25 26 27
10 11 11 9 9 8 8 7 6 5 5 5 4 4 2 1 1 0 1 1 2 2 3 3 2 3 3 4 3 3 3 4 5 6 6 5 6 6 6 7 7 8 14 15 16 16 17 17 17 18 18 19 18 18 18 18 20 20 20 19 18 18 17 18 19 19 20 21 23 24 24 25 26 26
11 11 11 11 10 9 9 7 7 6 6 5 5 4 3 1 1 1 1 2 2 2 5 5 4 3 3 3 3 3 4 5 6 5 7 6 6 7 7 6 7 10 15 16 17 17 17 18 18 18 18 19 19 18 18 19 20 21 20 19 19 18 18 18 19 19 20 21 23 24 25 25 26 26
10 11 11 11 10 10 10 9 8 7 7 6 5 4 3 2 2 2 2 2 3 4 5 5 6 5 4 4 4 5 6 5 5 6 6 5 6 6 7 7 6 5 5 5 7 11 14 17 19 18 18 19 19 19 19 19 20 20 20 19 18 18 18 18 19 19 21 21 22 23 24 25 26 26
9 10 11 11 10 10 9 11 10 8 7 5 5 4 4 3 3 3 3 3 4 5 6 6 6 6 4 4 6 5 4 5 5 6 7 8 6 6 7 7 5 5 6 10 13 12 10 10 9 12 17 19 19 19 19 19 20 19 20 19 19 18 18 18 19 20 21 21 22 23 24 24 26 26
9 9 10 10 9 9 9 9 8 9 7 5 5 4 4 4 3 4 4 5 5 5 6 7 6 6 5 4 5 4 3 4 7 7 7 9 8 7 7 7 6 4 6 6 6 9 11 12 14 17 18 19 20 21 20 21 19 18 19 18 19 19 18 19 20 20 20 21 22 23 23 24 25 26
7 8 7 7 7 9 9 8 9 8 7 6 5 4 5 4 5 4 4 4 4 4 5 7 7 7 7 6 6 6 6 8 10 5 5 7 8 7 7 7 7 6 7 7 7 6 5 5 5 6 7 8 12 13 17 14 17 18 18 18 18 18 19 19 20 20 20 21 22 22 23 24 24 26
7 7 6 7 11 12 10 9 11 10 8 5 3 3 5 5 5 5 5 5 5 5 7 9 8 8 9 8 7 9 9 7 6 7 7 9 9 7 9 9 6 5 6 7 7 6 4 5 6 6 7 6 7 6 6 6 9 13 15 16 19 19 19 20 20 20 20 20 21 22 23 24 24 25
8 6 7 7 8 8 7 7 10 8 7 6 7 8 7 6 6 5 6 6 6 7 9 9 7 9 11 11 9 9 10 7 8 8 8 9 8 8 9 11 8 4 4 5 6 7 4 4 7 7 7 6 6 6 7 13 16 17 16 17 19 19 19 20 19 19 19 21 22 22 23 23 24 25
8 8 6 6 5 6 7 6 6 5 7 8 10 11 12 13 14 11 8 7 8 9 9 10 10 10 11 13 11 9 9 9 8 8 8 9 8 9 9 10 10 5 1 4 6 9 5 3 6 8 7 5 6 8 12 16 16 17 18 20 21 20 21 20 18 17 19 21 22 22 23 23 24 26
9 9 8 7 5 5 8 7 5 5 4 7 11 12 13 13 14 15 18 17 12 9 9 10 12 13 11 13 13 9 7 5 9 9 9 8 8 8 9 9 8 6 2 0 6 10 9 5 5 8 8 7 6 7 11 15 16 18 18 20 20 21 20 19 17 17 21 22 22 22 23 23 24 26
8 8 10 9 7 5 6 5 5 4 4 4 4 6 7 7 10 14 18 19 21 16 11 12 14 15 10 12 12 9 7 10 10 9 9 8 8 9 11 11 11 9 7 8 8 11 13 7 6 10 9 6 6 6 10 15 15 18 19 20 20 20 19 17 16 18 22 22 23 23 23 24 25 26
10 10 9 9 9 8 7 6 6 5 5 4 4 6 7 9 9 8 9 10 10 10 10 13 15 15 11 10 9 8 7 8 7 5 5 7 9 10 11 12 12 12 10 10 9 12 11 6 7 9 8 7 8 5 9 16 16 17 18 19 18 18 17 16 16 21 23 23 23 23 24 24 26 26
8 8 8 7 7 7 6 8 11 7 4 4 7 8 9 8 9 10 10 11 9 8 9 9 10 10 10 11 11 11 9 7 7 8 9 9 8 8 9 11 10 11 8 9 10 9 10 7 6 8 7 6 8 6 5 10 16 17 17 17 17 17 16 16 18 22 23 22 23 24 24 24 26 26
7 7 7 7 6 6 6 8 10 10 9 6 7 8 10 9 9 10 6 11 16 18 19 20 21 22 23 24 24 24 25 17 13 10 10 11 6 6 8 10 11 11 7 7 9 8 8 6 6 8 7 6 8 7 7 6 13 16 14 12 13 15 15 18 20 22 22 22 23 24 24 25 25 27
5 6 7 6 6 6 6 8 10 10 9 7 7 8 9 11 11 8 3 5 7 13 17 20 21 21 21 21 23 23 21 20 14 8 10 10 8 11 10 10 9 9 8 8 6 4 8 6 6 7 7 7 6 7 7 5 4 8 8 11 13 16 18 19 20 19 20 22 23 24 24 24 23 15
4 5 6 8 7 6 6 9 10 12 10 7 7 7 8 10 11 7 5 7 7 5 4 7 8 9 12 12 11 11 18 18 15 10 11 9 9 10 10 9 9 9 9 5 6 6 6 6 6 5 4 7 6 5 5 4 2 1 1 5 7 11 13 17 17 18 20 21 22 23 23 23 20 10
4 4 4 7 10 10 10 11 11 12 13 9 6 5 6 8 10 5 5 6 6 8 7 8 9 10 9 9 8 8 8 8 8 9 8 7 7 8 8 8 8 9 8 2 6 6 5 5 5 3 5 7 6 0 1 4 4 3 3 4 4 9 12 12 12 16 18 19 22 22 22 21 19 10
5 4 4 4 9 12 12 11 12 12 12 11 6 4 5 6 8 10 8 9 9 8 8 9 8 8 7 7 6 5 6 5 5 6 8 7 6 7 7 8 8 9 9 6 5 4 5 3 7 5 5 4 7 7 7 5 4 3 2 3 5 5 4 6 6 8 12 18 20 22 21 19 19 15
3 4 3 4 8 12 10 9 8 8 8 10 6 6 11 15 17 11 8 8 7 7 6 6 6 5 5 3 3 4 5 5 7 6 5 5 5 5 5 5 7 8 10 5 8 5 6 7 7 6 6 7 8 8 9 7 4 4 3 2 3 5 4 5 7 7 7 9 10 12 14 20 19 20
3 2 2 2 7 6 4 2 2 4 7 7 6 11 12 12 13 10 5 5 6 6 7 7 7 6 4 3 3 4 5 3 2 2 3 3 4 4 5 6 6 8 7 4 4 4 5 5 4 6 8 7 8 8 8 8 5 1 3 5 3 4 5 6 7 8 9 10 10 18 17 16 17 18
2 2 1 4 10 7 6 3 2 1 1 0 4 6 8 10 9 6 6 5 5 6 7 7 7 6 6 5 5 4 5 5 5 5 6 6 5 5 5 5 5 4 5 4 5 5 7 8 7 6 7 6 6 6 8 7 5 5 4 6 5 6 6 6 8 8 8 9 9 8 8 8 8 10
5 11 14 13 11 10 8 6 3 2 2 6 6 7 8 7 3 3 4 4 4 6 7 6 6 5 5 5 4 4 6 6 6 4 3 3 2 3 4 4 5 5 5 4 5 6 6 7 7 6 5 6 5 6 6 7 6 6 6 7 6 3 6 7 7 7 8 9 9 8 7 8 9 9
13 11 11 11 8 6 4 1 0 0 1 3 3 3 3 1 2 3 3 3 3 4 6 7 7 6 5 5 6 6 5 5 6 5 6 6 5 4 4 6 5 3 5 5 6 5 6 7 8 6 6 5 5 5 5 6 7 5 5 5 7 7 5 6 7 8 8 9 8 7 7 8 9 9
7 6 5 4 6 4 5 5 4 3 2 1 0 1 2 2 1 1 2 2 4 5 5 6 5 6 6 6 7 7 7 7 7 6 6 6 6 6 6 7 8 8 6 4 6 6 6 7 7 8 6 5 5 5 5 5 6 6 6 5 6 8 6 6 6 8 8 8 7 7 7 8 8 9
5 6 6 6 4 3 2 3 2 2 2 1 1 1 2 2 3 4 5 5 3 3 4 5 6 6 6 6 7 7 7 7 7 7 6 8 8 6 6 7 9 9 9 8 4 5 6 5 5 6 7 7 6 5 4 4 5 6 7 6 6 6 5 6 7 8 8 8 7 6 7 8 9 8
3 4 3 3 3 3 2 2 1 1 0 1 1 2 1 1 2 2 2 2 3 3 4 5 6 6 7 7 7 7 7 7 6 6 7 8 8 7 6 7 9 9 11 10 9 5 2 2 3 5 6 6 7 6 4 4 5 5 7 7 5 5 4 6 8 9 9 8 6 6 8 9 8 8
4 3 3 2 2 1 1 1 0 0 0 0 1 1 2 2 2 2 2 2 2 3 3 4 4 5 5 5 6 6 7 7 6 7 9 7 8 7 7 7 7 7 8 9 9 8 5 1 2 3 3 4 4 4 4 6 8 7 6 4 5 5 5 6 7 7 7 6 8 9 9 9 8 7
4 3 2 2 2 2 1 2 2 1 1 0 0 0 1 1 1 1 1 2 4 4 3 3 3 3 3 4 4 5 6 7 7 5 5 6 6 7 8 8 8 8 8 8 8 8 6 5 5 5 4 4 3 5 11 11 5 7 4 4 3 5 6 7 7 6 8 7 7 9 9 9 8 7
3 3 3 2 3 3 3 3 2 1 1 0 0 0 0 1 1 1 2 3 2 2 2 2 4 3 3 3 4 4 5 7 6 6 5 6 6 6 6 7 7 8 7 7 7 6 5 5 5 5 5 5 5 5 4 8 12 6 3 4 3 5 7 7 6 5 6 6 7 8 9 10 10 9
4 3 3 3 3 3 3 2 2 1 1 1 0 0 0 0 1 2 2 2 1 1 1 1 2 2 2 3 5 5 5 5 5 6 6 5 5 5 6 6 7 7 7 7 6 5 4 4 4 4 5 5 5 5 6 3 6 5 2 4 5 6 8 8 7 7 5 6 7 7 9 10 10 10
3 3 3 3 3 1 2 1 2 1 2 1 1 0 0 1 0 1 0 0 0 1 1 1 1 2 2 3 3 3 4 4 4 4 5 5 5 5 5 6 6 6 6 6 5 4 2 3 4 3 3 4 5 6 7 5 3 4 5 4 7 10 7 7 7 7 7 6 7 8 8 9 9 9
1 2 2 3 3 3 3 2 2 2 2 1 1 1 1 0 1 0 0 0 0 0 1 2 1 2 1 2 3 3 3 3 3 4 5 4 5 5 5 5 5 5 5 6 5 5 4 3 3 3 3 5 5 6 6 7 9 7 10 18 11 9 7 6 7 7 6 7 7 8 8 8 11 17
3 3 3 3 3 3 2 2 2 2 2 1 2 1 1 1 0 1 1 1 0 1 1 2 2 2 1 2 2 3 3 3 3 3 4 4 5 5 5 4 5 6 5 5 4 4 5 4 5 4 3 4 5 6 6 7 8 9 10 13 17 10 7 6 7 7 7 7 9 9 9 8 8 7
3 3 2 3 3 3 3 2 3 2 2 2 2 1 1 1 0 1 1 1 1 0 1 2 2 1 2 2 3 2 3 3 3 3 3 4 5 6 7 7 5 5 5 5 4 4 3 2 1 8 6 4 5 5 5 5 7 6 5 5 8 14 15 12 8 7 7 8 7 7 8 8 8 8
3 3 3 2 3 3 3 3 2 2 2 2 2 2 1 1 2 4 2 3 1 1 3 3 3 1 2 2 2 3 2 3 3 3 4 3 3 5 6 4 4 4 4 5 5 5 4 3 3 3 4 4 4 4 6 6 8 8 7 6 5 9 13 16 17 15 10 8 7 7 7 6 5 6
3 3 3 3 3 3 3 3 2 2 2 2 2 1 2 1 2 2 2 3 3 3 3 2 2 2 2 2 3 2 2 3 3 3 3 3 3 4 4 3 3 4 4 5 5 4 4 4 3 3 4 3 4 3 7 7 8 8 8 7 7 7 8 14 15 16 15 16 13 8 6 6 6 7
3 3 3 3 3 3 3 3 2 2 2 1 2 2 2 2 2 2 3 3 2 3 2 2 2 2 3 3 2 3 3 3 2 3 3 3 3 3 3 3 3 3 4 5 5 4 4 4 3 3 4 5 4 4 7 7 8 8 7 7 7 7 9 8 8 10 10 11 12 12 12 13 13 15
3 3 3 3 3 3 3 3 3 2 2 2 2 3 3 2 3 3 3 3 3 2 2 3 3 3 3 3 3 3 3 4 3 3 3 3 4 4 3 3 3 3 4 4 4 5 3 4 4 4 4 4 4 5 7 7 8 8 7 7 8 7 7 7 8 9 9 9 12 16 14 15 15 16
Wind_Direction
135 128 130 116 114 104 101 90 89 93 77 70 75 56 98 18 281 188 200 197 184 155 160 162 190 185 194 185 193 166 211 210 170 230 244 255 254 260 260 268 280 284 283 282 282 285 287 286 287 289 290 292 298 302 304 307 313 315 314 312 310 310 314 317 322 325 327 327 325 323 323 322 321 321
137 130 115 113 110 113 98 93 91 90 86 87 77 74 58 40 51 2 355 337 81 134 166 207 138 177 193 194 192 181 213 162 175 228 247 245 250 259 262 270 279 279 277 278 279 279 279 281 282 284 286 290 295 298 300 305 310 310 309 309 308 310 314 318 321 324 325 323 321 321 321 321 320 319
139 134 122 115 113 108 102 97 90 86 89 87 79 71 65 56 42 41 353 277 67 120 164 203 111 153 186 185 188 191 218 176 191 225 248 249 256 260 263 269 271 270 270 271 272 273 276 279 280 281 285 288 292 294 296 301 305 305 305 305 306 309 313 317 319 321 320 319 319 319 319 319 318 318
141 135 129 126 124 121 113 106 100 93 74 73 82 78 77 78 48 43 359 283 294 91 120 121 126 147 164 180 186 221 208 197 184 225 244 251 254 251 253 259 258 258 264 267 269 271 272 274 276 279 282 286 287 289 292 297 299 300 301 302 305 309 311 313 316 316 316 316 315 316 316 316 316 317
143 139 128 121 118 122 116 114 109 97 90 81 78 79 95 99 86 78 302 271 289 56 75 99 145 153 145 201 195 219 231 198 200 219 237 239 241 245 250 258 261 257 258 262 265 265 267 270 273 277 281 282 284 284 287 291 294 296 297 300 303 306 307 310 312 313 313 312 312 313 314 315 315 316
144 134 127 122 120 115 111 113 107 110 112 106 107 104 95 90 111 75 100 287 264 271 153 176 132 141 179 210 219 199 228 244 224 209 217 227 229 242 251 255 256 261 259 262 262 262 264 268 272 277 279 280 281 281 283 286 290 293 296 297 299 302 305 306 308 309 309 309 310 311 312 313 313 313
143 133 130 127 120 112 109 107 108 113 114 111 114 103 83 80 92 91 357 248 272 281 280 103 157 185 189 203 229 218 211 232 238 251 252 247 244 236 241 250 254 261 263 264 265 264 265 267 270 274 276 278 278 278 279 282 287 291 292 293 296 298 301 303 304 305 306 306 309 310 310 311 311 312
147 140 130 132 130 126 124 125 123 120 119 121 112 103 86 72 70 99 149 271 255 289 276 275 226 231 204 227 210 208 228 228 240 242 248 241 241 241 239 242 248 252 257 263 265 264 265 268 270 271 273 275 276 275 276 280 286 289 290 291 293 295 298 300 301 301 302 305 307 308 309 309 310 311
148 145 141 142 139 139 133 137 135 135 129 118 104 104 100 127 183 151 222 226 245 243 257 268 255 216 218 218 224 220 228 246 246 237 242 242 240 244 238 237 243 251 257 262 261 260 261 264 266 267 269 272 272 272 273 279 286 290 291 291 292 293 295 297 297 298 301 303 304 306 307 308 309 309
151 145 142 143 148 150 153 146 133 134 132 116 113 121 146 167 188 209 221 220 225 241 250 258 266 253 224 234 231 202 218 239 255 263 255 249 242 243 250 240 238 232 235 237 247 253 256 259 261 260 260 264 267 267 270 276 284 288 289 288 289 290 291 293 294 297 299 301 303 305 306 307 308 309
141 143 146 151 154 157 144 134 144 142 131 128 136 157 169 181 189 218 227 226 230 237 249 254 256 259 248 234 250 241 207 216 238 256 278 274 250 235 246 259 239 223 232 239 238 236 234 238 243 249 253 256 260 263 267 272 276 286 288 287 286 287 288 289 292 296 298 300 302 304 305 306 307 308
145 143 143 147 153 142 138 146 148 137 135 137 151 168 166 182 194 218 233 235 236 241 248 253 259 258 255 236 251 234 205 241 250 236 234 258 270 260 252 247 249 240 237 242 239 240 247 251 251 252 255 257 261 265 268 269 268 271 280 282 282 284 285 289 293 295 297 299 301 304 305 305 306 306
122 118 118 116 122 123 118 125 123 121 129 144 165 185 173 193 202 221 230 237 239 250 254 260 261 262 253 248 249 249 231 229 253 246 211 245 257 262 266 262 248 244 251 253 251 246 232 229 229 228 240 245 252 259 263 262 259 260 270 278 282 284 288 292 293 295 297 300 302 303 304 305 305 305
112 110 111 122 128 129 129 125 116 121 127 149 170 178 183 199 213 221 228 238 241 247 254 256 261 263 263 255 247 256 253 252 256 261 255 261 265 270 267 269 251 218 233 255 250 246 218 224 241 232 244 245 247 248 253 242 244 247 256 279 288 288 288 291 293 294 298 301 303 304 304 305 304 304
130 116 115 122 122 121 131 131 128 137 155 191 218 235 241 235 217 225 237 241 236 246 257 263 260 263 268 263 259 258 268 260 259 262 266 269 271 267 278 283 283 247 238 231 257 257 234 212 247 249 250 253 250 255 255 259 254 257 265 277 286 286 287 290 291 294 299 303 304 305 305 304 304 303
135 133 129 123 128 148 155 138 133 152 189 211 223 231 237 239 244 243 235 243 251 248 254 262 262 262 261 272 267 268 270 274 278 274 269 264 264 270 272 276 280 315 131 222 257 267 247 215 242 257 253 254 256 257 262 264 262 267 272 284 288 291 293 292 291 296 304 306 307 306 305 303 303 303
137 137 133 129 138 148 134 122 131 142 186 220 230 240 244 246 243 244 245 242 241 249 258 265 267 257 262 269 271 267 274 291 287 288 279 275 272 273 277 278 289 301 16 335 271 275 272 250 250 263 262 265 258 262 269 275 272 274 272 285 288 290 293 289 289 299 307 308 308 306 305 303 303 303
137 142 145 145 153 156 142 138 143 166 183 206 223 232 234 235 239 241 242 243 244 244 247 254 260 263 255 262 276 294 309 299 290 289 283 287 286 285 280 289 290 293 301 284 284 276 274 262 259 266 270 260 256 257 270 274 276 279 278 284 287 288 289 282 285 301 310 309 307 307 306 305 304 304
149 149 151 157 156 158 163 160 163 160 185 199 229 249 253 252 253 250 243 239 241 241 242 245 253 267 272 272 284 292 288 279 283 289 286 278 275 276 278 276 271 273 259 259 258 264 275 272 262 261 269 272 271 267 275 278 277 278 277 282 284 284 281 275 288 306 308 307 308 308 308 306 305 305
139 149 154 153 151 155 160 171 181 183 175 220 240 251 257 258 257 256 248 252 252 245 241 245 253 264 270 274 277 276 276 272 268 269 268 271 274 279 274 269 275 267 263 247 252 261 268 265 262 264 268 270 270 266 258 272 277 278 276 275 281 284 273 275 293 303 305 306 309 311 309 307 306 306
141 148 159 152 146 155 159 173 191 207 206 226 238 250 259 261 262 266 262 250 254 257 261 266 270 273 276 279 281 283 285 287 292 298 291 279 278 258 261 267 275 271 272 251 250 262 266 251 250 267 268 262 267 272 271 267 269 269 270 270 278 282 279 286 293 298 301 306 311 311 310 307 308 309
143 157 155 145 149 157 166 170 200 214 216 232 237 247 260 267 268 276 262 252 247 249 252 258 263 267 271 275 276 278 277 276 275 262 264 269 271 268 266 274 274 281 275 264 249 257 250 259 255 269 275 276 252 259 260 246 256 272 272 267 275 285 287 292 295 297 301 307 311 311 309 307 310 312
143 157 168 168 167 163 169 192 207 218 217 231 234 244 257 268 275 285 292 288 286 282 272 263 259 261 260 259 258 257 260 259 256 248 252 262 260 265 270 274 285 285 281 282 163 228 260 259 253 248 278 271 266 235 247 275 266 237 240 272 280 281 283 292 295 299 302 306 310 310 307 307 311 311
165 162 172 186 198 201 207 215 220 226 227 228 239 243 255 269 278 296 289 287 287 286 280 276 271 270 266 261 256 253 251 252 250 256 258 262 267 274 281 283 284 285 292 14 151 230 265 256 268 245 255 280 292 121 183 253 249 239 252 262 266 287 293 296 299 300 301 305 309 309 307 306 310 308
164 166 177 177 194 211 220 225 230 236 244 251 254 243 248 252 272 288 282 284 274 272 273 273 272 272 266 257 255 257 257 259 259 255 255 253 252 262 272 281 285 289 291 290 222 237 264 272 276 278 263 249 274 288 279 272 262 246 239 268 279 285 294 298 300 299 300 304 306 305 305 305 307 309
161 165 163 185 189 203 217 227 238 252 262 268 268 270 277 285 289 292 294 296 299 292 287 280 274 268 271 272 252 253 255 251 248 251 254 252 257 262 276 286 292 292 287 328 316 280 283 279 274 274 270 271 272 275 290 284 281 267 288 279 293 298 302 306 299 292 298 292 298 298 297 305 311 308
143 155 132 116 137 161 176 190 232 268 277 280 276 281 287 296 308 319 324 319 307 301 299 303 304 306 306 292 279 268 267 276 281 294 302 305 300 294 281 278 270 274 290 301 306 292 281 277 276 265 274 276 281 286 279 285 291 334 310 290 294 307 309 292 293 303 297 295 291 301 307 310 309 310
111 128 146 97 100 94 92 93 84 72 63 279 297 302 304 315 316 304 300 297 299 305 303 300 299 299 301 302 307 353 4 351 349 322 304 288 280 285 286 290 288 287 296 292 280 265 263 268 271 263 267 266 263 268 281 287 289 300 304 310 303 297 293 301 300 289 285 290 296 304 305 306 311 310
77 88 93 95 97 102 106 114 135 180 252 284 301 323 334 342 316 304 300 310 318 307 305 308 317 328 340 339 340 337 320 321 315 310 309 303 279 259 275 268 261 266 276 267 263 261 258 257 260 266 257 257 254 266 274 284 301 303 306 306 302 308 307 291 284 291 297 296 295 301 304 312 308 306
98 92 93 100 107 118 122 134 131 347 34 24 360 341 360 11 360 0 345 328 324 314 313 312 310 314 321 324 338 330 324 325 324 330 321 320 309 309 296 294 281 255 236 241 249 254 258 255 257 255 260 253 248 262 270 286 287 294 300 295 293 295 272 298 298 296 293 293 298 303 311 306 300 303
95 95 95 101 108 107 113 110 106 124 124 140 54 56 28 16 355 351 349 333 326 312 310 312 319 324 323 327 324 323 325 317 317 324 323 319 312 317 316 311 307 310 294 255 233 237 239 253 252 258 260 266 263 251 265 275 283 292 286 288 294 293 305 295 294 296 295 297 305 309 310 305 302 302
94 103 120 119 122 125 163 164 155 126 85 75 76 38 22 10 5 352 337 330 325 323 325 319 320 318 322 319 316 317 317 318 318 328 331 325 318 318 325 315 311 315 311 310 278 243 244 241 262 274 270 265 262 270 270 265 272 281 286 280 276 279 290 302 300 295 301 307 307 313 311 306 303 302
112 122 132 146 155 151 120 91 89 77 42 2 51 89 39 25 355 345 335 330 321 331 338 319 316 311 312 310 318 316 313 316 326 333 329 329 326 325 321 311 310 316 317 316 318 297 200 258 286 269 276 289 301 319 320 302 272 271 280 284 296 293 307 300 296 300 308 308 310 314 307 303 298 298
140 148 128 126 120 116 120 122 219 141 219 355 38 10 36 23 7 335 340 329 8 0 338 322 308 309 317 319 320 321 318 322 328 334 329 324 322 317 316 314 312 315 313 314 316 318 328 299 218 257 264 271 275 262 256 256 265 270 270 292 295 298 296 290 291 300 311 319 320 311 304 301 301 301
138 143 133 141 141 148 160 158 145 125 118 33 52 13 37 359 331 343 3 42 31 353 321 302 316 330 335 328 331 326 326 323 323 326 323 321 321 320 320 315 316 317 317 315 316 323 331 331 330 318 305 278 261 250 222 221 249 255 268 278 284 303 297 294 301 311 321 317 312 302 301 299 300 307
135 140 148 141 129 139 151 153 150 154 149 220 100 46 341 331 20 65 51 38 19 313 305 327 333 334 333 329 328 325 321 322 320 325 324 323 320 318 318 314 315 314 315 312 317 323 333 333 332 320 318 315 312 309 319 240 215 231 282 287 309 299 289 294 309 322 317 304 303 304 303 305 304 311
147 144 149 156 160 160 164 166 153 176 139 118 88 22 77 46 34 61 48 9 286 298 328 331 318 328 322 321 322 317 320 323 323 322 319 318 316 316 316 314 315 314 313 314 321 323 334 326 316 308 307 303 295 298 280 329 327 332 61 339 313 292 302 312 318 310 301 300 298 301 300 301 301 304
161 161 159 166 157 140 124 123 97 116 111 94 114 101 65 89 75 76 219 216 312 359 312 326 299 309 324 322 309 310 316 315 317 314 312 315 314 318 316 312 311 310 311 310 309 309 303 282 283 287 297 291 308 303 309 326 334 325 332 309 297 295 303 305 301 301 303 299 296 298 300 294 300 305
100 110 122 111 105 115 127 128 136 136 115 141 129 131 131 139 135 134 208 208 219 272 301 307 308 310 316 294 303 309 308 306 307 305 307 310 315 314 310 307 305 309 314 307 312 307 307 301 306 323 331 332 319 314 323 306 293 292 296 289 281 283 286 280 282 289 291 300 300 300 289 290 294 299
83 80 89 108 121 118 120 125 126 126 135 135 122 98 114 199 152 165 210 226 175 290 286 261 264 286 292 302 302 296 294 287 288 296 304 306 310 307 300 298 302 304 300 300 310 316 313 336 9 14 355 312 293 298 294 283 281 281 274 279 274 275 288 292 299 307 308 306 307 304 302 309 304 308
126 125 115 111 117 125 133 128 128 117 122 112 109 180 169 142 170 259 172 197 195 274 276 284 284 268 263 268 277 272 276 290 292 293 305 312 304 305 307 309 302 303 306 307 308 308 327 46 305 312 315 297 294 297 288 279 283 289 292 293 307 310 306 313 312 310 298 300 292 290 294 302 305 310
131 125 124 128 129 127 124 122 122 131 140 148 155 165 165 198 193 215 225 252 216 224 242 240 243 253 266 264 250 264 270 274 279 289 297 297 299 299 303 305 301 310 313 302 303 297 308 334 338 324 290 293 301 300 290 290 293 297 301 304 294 307 316 313 312 309 304 290 287 286 292 292 288 289
128 131 139 131 122 118 121 128 132 135 161 154 162 168 160 210 208 204 211 208 198 210 225 248 263 249 256 261 269 262 261 266 267 280 278 278 282 289 292 295 300 302 295 289 287 293 299 310 316 315 306 297 282 281 282 285 287 293 299 308 312 316 309 312 312 314 316 315 309 295 276 280 296 303
132 130 129 130 132 131 123 134 148 156 149 171 165 172 199 193 220 216 196 198 208 216 237 229 244 248 249 257 256 260 247 246 259 259 264 270 273 271 274 280 288 285 286 285 290 294 303 308 305 302 305 289 286 286 283 291 292 296 299 303 309 312 309 310 312 316 318 314 318 315 305 300 298 302
135 131 129 136 138 142 146 146 153 167 168 180 182 189 202 211 210 207 211 201 208 226 221 229 235 246 248 248 245 250 257 259 253 248 254 257 260 266 273 275 279 285 282 289 298 295 307 312 302 291 274 279 282 278 280 281 286 295 295 301 299 302 301 312 320 323 324 321 315 320 321 321 321 321